User: anonymous   Login
Location: Unspecified
(0.0000°N, 0.0000°E)
Time: 10:14:08
(UTC+00:00)
Language:

GONETS M 07 - Orbit

View from above orbital plane
View from above orbital plane
View from above satellite
View from above satellite

Ground track
Ground track

The orbit data is extracted from the following two-line orbital elements,

1 39251U 13048C   17080.89197727 +.00000010 +00000-0 +00000-0 0  9993
2 39251 082.4863 287.9387 0016647 010.4628 349.6793 12.42872152159844
Epoch (UTC): 21 March 2017 21:24:26
Eccentricity: 0.0016647
inclination: 82.4863°
perigee height: 1481 km
apogee height: 1507 km
right ascension of ascending node: 287.9387°
argument of perigee: 10.4628°
revolutions per day: 12.42872152
mean anomaly at epoch: 349.6793°
orbit number at epoch: 15984

The dashed part of the orbit path shows where the satellite is in the earth's shadow,  

DLR